Weather in Korsun-Shevchenkivskyi

Ukraine / Cherkassi District     49°25′02″N   31°15′19″E
В апреле 2022 года жителям России запретили посещать сайт meteo.paraplan.net по решению Генеральной прокуратуры. Аудитория сайта уменьшилась в 10 раз. Владельцы сайта не видят смысла в поддержке погодного сервера в таких условиях. Сайт будет закрыт в октябре.
temp.,
°C
wind,
m/s
gust,
m/s
humid.,
%
clouds,
%
prec.,
mm/h
press.,
hPa
HPBL,
m
25 september, sun
sun2500:00+7w5127855 0.0 1016299
03:00+7w512845 0.0 1017281
06:00+6w512865 0.0 1017267
09:00+10w510675 0.0 1017402
12:00+14w69515 0.0 10171500
15:00+15w5853100 0.0 10161497
18:00+14wsw366293 0.0 1015109
21:00+11wsw346998 0.0 101679
26 september, mon
mon2600:00+10sw227498 0.0 101516
03:00+9sw2372100 0.0 101525
06:00+11s226592 0.0 101445
09:00+11s2267100 0.0 101447
12:00+17sse454899 0.0 1013661
15:00+20s4752100 0.1 10101440
18:00+18w1165100 0.3 100913
21:00+15ssw1170100 0.3 100912
27 september, tue
tue2700:00+14nw1279100 0.0 100820
03:00+12e1183100 0.0 100811
06:00+13ese0091100 0.0 100610
09:00+14sse2797100 1.3 1006273
12:00+14ese61292100 1.7 1004482
15:00+14se61385100 1.7 1002543
18:00+15ese41090100 0.0 1000340
21:00+14ese3694100 0.4 999143
28 september, wed
wed2800:00+13ssw3496100 1.2 99881
03:00+12w4109614 1.4 999260
06:00+12wnw4993100 0.0 1000589
09:00+12w6980100 0.0 1002850
12:00+16w576513 0.0 10021020
15:00+18w6756100 0.0 10031626
18:00+16sw33685 0.0 100437
21:00+12wnw33825 0.0 100727
29 september, thu
thu2900:00+11nnw22905 0.0 100822
03:00+10ne11895 0.0 101010
06:00+10e339011 0.0 101043
09:00+13ese4882100 0.0 1011261
12:00+17se5963100 0.0 1011539
15:00+20sse5956100 0.0 10101093
18:00+18se4967100 0.0 1010181
21:00+16se51368100 0.1 1011276